| time (UTC) | temp C | wind direction | speed KPH | gust KPH | rain 1hr cm | rain 24hr cm | rain mn cm | humidity % | barometer mb |
| 20260505041704 | 22 | 198 | 11.3 | 14.5 | 0.00 | 0.00 | 0.00 | 57 | 1000.0 |
| 20260505040203 | 22 | 215 | 11.3 | 16.1 | 0.00 | 0.00 | 0.00 | 56 | 1000.0 |
| 20260505035703 | 22 | 210 | 11.3 | 16.1 | 0.00 | 0.00 | 0.00 | 56 | 1000.0 |
| 20260505033704 | 23 | 221 | 8.0 | 12.9 | 0.00 | 0.00 | 0.00 | 55 | 1000.0 |
| 20260505033203 | 23 | 232 | 8.0 | 14.5 | 0.00 | 0.00 | 0.00 | 54 | 1000.0 |
| 20260505032703 | 23 | 223 | 9.7 | 16.1 | 0.00 | 0.00 | 0.00 | 54 | 1000.0 |
| 20260505032204 | 23 | 220 | 11.3 | 16.1 | 0.00 | 0.00 | 0.00 | 54 | 1000.0 |
| 20260505031704 | 23 | 220 | 11.3 | 14.5 | 0.00 | 0.00 | 0.00 | 54 | 1000.0 |
| 20260505031203 | 23 | 213 | 12.9 | 16.1 | 0.00 | 0.00 | 0.00 | 54 | 1000.0 |
| 20260505030703 | 23 | 224 | 11.3 | 16.1 | 0.00 | 0.00 | 0.00 | 53 | 1000.0 |
| 20260505030203 | 23 | 217 | 9.7 | 16.1 | 0.00 | 0.00 | 0.00 | 52 | 1000.0 |
| 20260505025704 | 23 | 235 | 9.7 | 12.9 | 0.00 | 0.00 | 0.00 | 52 | 1000.0 |
| 20260505025204 | 24 | 227 | 9.7 | 11.3 | 0.00 | 0.00 | 0.00 | 52 | 1000.0 |
| 20260505024703 | 24 | 221 | 11.3 | 22.5 | 0.00 | 0.00 | 0.00 | 52 | 1000.0 |
| 20260505024203 | 24 | 229 | 9.7 | 19.3 | 0.00 | 0.00 | 0.00 | 51 | 1000.0 |
| 20260505023703 | 24 | 223 | 9.7 | 19.3 | 0.00 | 0.00 | 0.00 | 51 | 1000.0 |
| 20260505022704 | 24 | 225 | 12.9 | 25.7 | 0.00 | 0.00 | 0.00 | 50 | 1000.0 |
| 20260505022203 | 24 | 213 | 14.5 | 22.5 | 0.00 | 0.00 | 0.00 | 50 | 1000.0 |
| 20260505021704 | 24 | 212 | 16.1 | 27.4 | 0.00 | 0.00 | 0.00 | 50 | 1000.0 |
| 20260505021203 | 24 | 228 | 14.5 | 24.1 | 0.00 | 0.00 | 0.00 | 50 | 1000.0 |
| 20260505020704 | 24 | 214 | 14.5 | 24.1 | 0.00 | 0.00 | 0.00 | 51 | 1000.0 |
| 20260505020204 | 25 | 211 | 16.1 | 22.5 | 0.00 | 0.00 | 0.00 | 51 | 1000.0 |
| 20260505015704 | 25 | 216 | 11.3 | 16.1 | 0.00 | 0.00 | 0.00 | 51 | 1000.0 |
| 20260505015203 | 25 | 214 | 11.3 | 16.1 | 0.00 | 0.00 | 0.00 | 51 | 1000.0 |
| 20260505014704 | 25 | 226 | 9.7 | 14.5 | 0.00 | 0.00 | 0.00 | 51 | 1000.0 |
| 20260505013704 | 25 | 214 | 9.7 | 12.9 | 0.00 | 0.00 | 0.00 | 51 | 1000.0 |
| 20260505013203 | 25 | 217 | 8.0 | 12.9 | 0.00 | 0.00 | 0.00 | 50 | 1000.0 |
| 20260505012703 | 25 | 226 | 11.3 | 16.1 | 0.00 | 0.00 | 0.00 | 50 | 1000.0 |
| 20260505012203 | 25 | 228 | 8.0 | 14.5 | 0.00 | 0.00 | 0.00 | 50 | 1000.0 |
| 20260505011704 | 25 | 242 | 8.0 | 14.5 | 0.00 | 0.00 | 0.00 | 49 | 1000.0 |
| 20260505011203 | 25 | 235 | 8.0 | 14.5 | 0.00 | 0.00 | 0.00 | 49 | 1000.0 |
| 20260505010704 | 25 | 227 | 11.3 | 19.3 | 0.00 | 0.00 | 0.00 | 49 | 1000.0 |
| 20260505010204 | 25 | 229 | 11.3 | 22.5 | 0.00 | 0.00 | 0.00 | 48 | 1000.0 |
| 20260505005704 | 25 | 223 | 11.3 | 20.9 | 0.00 | 0.00 | 0.00 | 48 | 1000.0 |
| 20260505004704 | 25 | 223 | 12.9 | 22.5 | 0.00 | 0.00 | 0.00 | 48 | 1000.0 |
| 20260505004203 | 25 | 223 | 16.1 | 27.4 | 0.00 | 0.00 | 0.00 | 47 | 1000.0 |
| 20260505003703 | 26 | 214 | 11.3 | 27.4 | 0.00 | 0.00 | 0.00 | 48 | 1000.0 |
| 20260505002704 | 26 | 211 | 19.3 | 27.4 | 0.00 | 0.00 | 0.00 | 47 | 1000.0 |
| 20260505002203 | 26 | 209 | 20.9 | 32.2 | 0.00 | 0.00 | 0.00 | 47 | 1000.0 |
| 20260505001703 | 26 | 206 | 16.1 | 25.7 | 0.00 | 0.00 | 0.00 | 48 | 1000.0 |
| 20260505001204 | 26 | 220 | 14.5 | 20.9 | 0.00 | 0.00 | 0.00 | 47 | 1000.0 |
| 20260505000703 | 26 | 215 | 19.3 | 32.2 | 0.00 | 0.00 | 0.00 | 47 | 1000.0 |
| 20260505000204 | 26 | 216 | 12.9 | 24.1 | 0.00 | 0.00 | 0.00 | 47 | 1000.0 |
| 20260504235704 | 26 | 210 | 19.3 | 35.4 | 0.00 | 0.00 | 0.00 | 47 | 1000.0 |
| 20260504235203 | 26 | 217 | 16.1 | 24.1 | 0.00 | 0.00 | 0.00 | 47 | 1000.0 |
| 20260504234704 | 26 | 207 | 14.5 | 25.7 | 0.00 | 0.00 | 0.00 | 46 | 1000.0 |
| 20260504234204 | 26 | 206 | 17.7 | 32.2 | 0.00 | 0.00 | 0.00 | 46 | 1000.0 |
| 20260504233703 | 26 | 219 | 20.9 | 27.4 | 0.00 | 0.00 | 0.00 | 46 | 1000.0 |
| 20260504233203 | 26 | 207 | 20.9 | 33.8 | 0.00 | 0.00 | 0.00 | 46 | 1000.0 |
| 20260504232704 | 26 | 219 | 19.3 | 29.0 | 0.00 | 0.00 | 0.00 | 45 | 1000.0 |
| 20260504232204 | 26 | 215 | 22.5 | 33.8 | 0.00 | 0.00 | 0.00 | 45 | 1000.0 |
| 20260504231704 | 26 | 216 | 22.5 | 33.8 | 0.00 | 0.00 | 0.00 | 45 | 1000.0 |
| 20260504231204 | 26 | 227 | 20.9 | 32.2 | 0.00 | 0.00 | 0.00 | 45 | 1000.0 |
| 20260504230204 | 27 | 222 | 14.5 | 37.0 | 0.00 | 0.00 | 0.00 | 45 | 1000.0 |
| 20260504225703 | 27 | 214 | 22.5 | 40.2 | 0.00 | 0.00 | 0.00 | 44 | 1000.0 |
| 20260504225203 | 27 | 211 | 22.5 | 51.5 | 0.00 | 0.00 | 0.00 | 43 | 1000.0 |
| 20260504224704 | 27 | 208 | 16.1 | 38.6 | 0.00 | 0.00 | 0.00 | 43 | 1000.0 |
| 20260504224203 | 27 | 217 | 22.5 | 33.8 | 0.00 | 0.00 | 0.00 | 43 | 1000.0 |
| 20260504223704 | 27 | 219 | 19.3 | 32.2 | 0.00 | 0.00 | 0.00 | 43 | 1000.0 |
| 20260504223203 | 27 | 218 | 22.5 | 48.3 | 0.00 | 0.00 | 0.00 | 42 | 1000.0 |
| 20260504222703 | 27 | 216 | 25.7 | 46.7 | 0.00 | 0.00 | 0.00 | 42 | 1000.0 |
| 20260504222203 | 27 | 222 | 20.9 | 37.0 | 0.00 | 0.00 | 0.00 | 43 | 1000.0 |
| 20260504221703 | 27 | 211 | 24.1 | 35.4 | 0.00 | 0.00 | 0.00 | 42 | 1000.0 |
| 20260504221204 | 27 | 205 | 27.4 | 53.1 | 0.00 | 0.00 | 0.00 | 42 | 1000.0 |
| 20260504220704 | 27 | 214 | 30.6 | 41.8 | 0.00 | 0.00 | 0.00 | 42 | 1000.0 |
| 20260504220204 | 27 | 206 | 20.9 | 38.6 | 0.00 | 0.00 | 0.00 | 42 | 1000.0 |
| 20260504215703 | 27 | 225 | 22.5 | 38.6 | 0.00 | 0.00 | 0.00 | 42 | 1000.0 |
| 20260504215203 | 27 | 214 | 32.2 | 46.7 | 0.00 | 0.00 | 0.00 | 41 | 1000.0 |
| 20260504214704 | 27 | 206 | 25.7 | 37.0 | 0.00 | 0.00 | 0.00 | 41 | 1000.0 |
| 20260504213703 | 27 | 219 | 27.4 | 45.1 | 0.00 | 0.00 | 0.00 | 42 | 1000.0 |
| 20260504213203 | 27 | 216 | 22.5 | 38.6 | 0.00 | 0.00 | 0.00 | 41 | 1000.0 |
| 20260504212703 | 27 | 221 | 22.5 | 37.0 | 0.00 | 0.00 | 0.00 | 42 | 1000.0 |
| 20260504212204 | 27 | 211 | 22.5 | 41.8 | 0.00 | 0.00 | 0.00 | 42 | 1000.0 |
| 20260504211704 | 27 | 225 | 22.5 | 35.4 | 0.00 | 0.00 | 0.00 | 40 | 1000.0 |
| 20260504211203 | 27 | 219 | 20.9 | 32.2 | 0.00 | 0.00 | 0.00 | 40 | 1000.0 |
| 20260504210203 | 27 | 216 | 29.0 | 51.5 | 0.00 | 0.00 | 0.00 | 39 | 1000.0 |
| 20260504205204 | 27 | 209 | 27.4 | 45.1 | 0.00 | 0.00 | 0.00 | 39 | 1000.0 |
| 20260504204704 | 27 | 220 | 27.4 | 46.7 | 0.00 | 0.00 | 0.00 | 40 | 1000.0 |
| 20260504204204 | 27 | 233 | 29.0 | 45.1 | 0.00 | 0.00 | 0.00 | 40 | 1000.0 |
| 20260504203203 | 27 | 211 | 20.9 | 35.4 | 0.00 | 0.00 | 0.00 | 41 | 1000.0 |
| 20260504202704 | 27 | 210 | 25.7 | 45.1 | 0.00 | 0.00 | 0.00 | 41 | 1000.0 |
| 20260504202203 | 27 | 210 | 25.7 | 41.8 | 0.00 | 0.00 | 0.00 | 42 | 1000.0 |
| 20260504201703 | 27 | 208 | 29.0 | 40.2 | 0.00 | 0.00 | 0.00 | 40 | 1000.0 |
| 20260504201204 | 27 | 207 | 22.5 | 41.8 | 0.00 | 0.00 | 0.00 | 42 | 1000.0 |
| 20260504200703 | 27 | 213 | 27.4 | 46.7 | 0.00 | 0.00 | 0.00 | 41 | 1000.0 |
| 20260504200203 | 27 | 217 | 24.1 | 37.0 | 0.00 | 0.00 | 0.00 | 41 | 1000.0 |
| 20260504195703 | 27 | 220 | 27.4 | 41.8 | 0.00 | 0.00 | 0.00 | 41 | 1000.0 |
| 20260504195203 | 27 | 230 | 22.5 | 37.0 | 0.00 | 0.00 | 0.00 | 41 | 1000.0 |
| 20260504194703 | 27 | 203 | 20.9 | 35.4 | 0.00 | 0.00 | 0.00 | 42 | 1000.0 |
| 20260504194204 | 27 | 209 | 19.3 | 33.8 | 0.00 | 0.00 | 0.00 | 43 | 1000.0 |
| 20260504193703 | 27 | 203 | 17.7 | 37.0 | 0.00 | 0.00 | 0.00 | 44 | 1000.0 |
| 20260504193204 | 26 | 228 | 19.3 | 35.4 | 0.00 | 0.00 | 0.00 | 47 | 1000.0 |
| 20260504192703 | 26 | 208 | 16.1 | 25.7 | 0.00 | 0.00 | 0.00 | 45 | 1000.0 |
| 20260504192203 | 26 | 230 | 16.1 | 25.7 | 0.00 | 0.00 | 0.00 | 46 | 1000.0 |
| 20260504191704 | 26 | 221 | 14.5 | 29.0 | 0.00 | 0.00 | 0.00 | 48 | 1000.0 |
| 20260504191203 | 26 | 220 | 16.1 | 29.0 | 0.00 | 0.00 | 0.00 | 49 | 1000.0 |
| 20260504190703 | 25 | 223 | 19.3 | 33.8 | 0.00 | 0.00 | 0.00 | 50 | 1000.0 |
| 20260504190203 | 25 | 217 | 19.3 | 27.4 | 0.00 | 0.00 | 0.00 | 49 | 1000.0 |
| 20260504185704 | 25 | 207 | 20.9 | 40.2 | 0.00 | 0.00 | 0.00 | 48 | 1000.0 |
| 20260504185204 | 25 | 218 | 25.7 | 38.6 | 0.00 | 0.00 | 0.00 | 48 | 1000.0 |
| 20260504184704 | 25 | 205 | 29.0 | 37.0 | 0.00 | 0.00 | 0.00 | 48 | 1000.0 |
| 20260504184203 | 25 | 200 | 19.3 | 37.0 | 0.00 | 0.00 | 0.00 | 49 | 1000.0 |
| 20260504183703 | 24 | 194 | 22.5 | 35.4 | 0.00 | 0.00 | 0.00 | 51 | 1000.0 |
| 20260504183203 | 24 | 205 | 22.5 | 40.2 | 0.00 | 0.00 | 0.00 | 52 | 1000.0 |
| 20260504182704 | 24 | 209 | 25.7 | 37.0 | 0.00 | 0.00 | 0.00 | 50 | 1000.0 |
| 20260504182203 | 24 | 212 | 25.7 | 40.2 | 0.00 | 0.00 | 0.00 | 50 | 1000.0 |
| 20260504181704 | 25 | 216 | 22.5 | 41.8 | 0.00 | 0.00 | 0.00 | 47 | 1000.0 |
| 20260504180703 | 25 | 226 | 22.5 | 40.2 | 0.00 | 0.00 | 0.00 | 45 | 1000.0 |
| 20260504180203 | 25 | 207 | 20.9 | 40.2 | 0.00 | 0.00 | 0.00 | 44 | 1000.0 |
| 20260504175704 | 25 | 209 | 27.4 | 38.6 | 0.00 | 0.00 | 0.00 | 44 | 1000.0 |
| 20260504174704 | 25 | 222 | 16.1 | 24.1 | 0.00 | 0.00 | 0.00 | 46 | 1000.0 |
| 20260504174204 | 25 | 220 | 17.7 | 27.4 | 0.00 | 0.00 | 0.00 | 45 | 1000.0 |
| 20260504173704 | 25 | 221 | 16.1 | 29.0 | 0.00 | 0.00 | 0.00 | 46 | 1000.0 |
| 20260504173204 | 25 | 236 | 19.3 | 37.0 | 0.00 | 0.00 | 0.00 | 46 | 1000.0 |
| 20260504172203 | 25 | 224 | 17.7 | 35.4 | 0.00 | 0.00 | 0.00 | 45 | 1000.0 |
| 20260504171703 | 25 | 219 | 16.1 | 25.7 | 0.00 | 0.00 | 0.00 | 45 | 1000.0 |
| 20260504170703 | 26 | 237 | 16.1 | 29.0 | 0.00 | 0.00 | 0.00 | 43 | 1000.0 |
| 20260504170204 | 26 | 230 | 19.3 | 37.0 | 0.00 | 0.00 | 0.00 | 44 | 1000.0 |
| 20260504160204 | 25 | 232 | 17.7 | 35.4 | 0.00 | 0.00 | 0.00 | 44 | 1000.0 |
| 20260504150704 | 23 | 217 | 20.9 | 40.2 | 0.00 | 0.00 | 0.00 | 47 | 1000.0 |
| 20260504150203 | 22 | 212 | 25.7 | 41.8 | 0.00 | 0.00 | 0.00 | 47 | 1000.0 |
| 20260504140703 | 21 | 219 | 22.5 | 33.8 | 0.00 | 0.00 | 0.00 | 51 | 1000.0 |
| 20260504140204 | 21 | 212 | 17.7 | 29.0 | 0.00 | 0.00 | 0.00 | 50 | 1000.0 |
| 20260504130204 | 19 | 213 | 20.9 | 38.6 | 0.00 | 0.00 | 0.00 | 54 | 1000.0 |
| 20260504120204 | 19 | 214 | 27.4 | 40.2 | 0.00 | 0.00 | 0.00 | 52 | 1000.0 |
| 20260504110703 | 19 | 209 | 22.5 | 33.8 | 0.00 | 0.00 | 0.00 | 51 | 1000.0 |
| 20260504110203 | 19 | 208 | 22.5 | 32.2 | 0.00 | 0.00 | 0.00 | 51 | 1000.0 |
| 20260504100204 | 20 | 224 | 11.3 | 22.5 | 0.00 | 0.00 | 0.00 | 52 | 1000.0 |
| 20260504081704 | 20 | 216 | 17.7 | 32.2 | 0.00 | 0.00 | 0.00 | 51 | 1000.0 |
| 20260504060204 | 21 | 216 | 16.1 | 27.4 | 0.00 | 0.00 | 0.00 | 48 | 1000.0 |
| 20260504050703 | 22 | 212 | 20.9 | 29.0 | 0.00 | 0.00 | 0.00 | 46 | 1000.0 |
| 20260504050203 | 22 | 208 | 22.5 | 32.2 | 0.00 | 0.00 | 0.00 | 45 | 1000.0 |
| 20260504045704 | 22 | 205 | 20.9 | 33.8 | 0.00 | 0.00 | 0.00 | 45 | 1000.0 |
| 20260504045205 | 22 | 209 | 20.9 | 29.0 | 0.00 | 0.00 | 0.00 | 45 | 1000.0 |
| 20260504044704 | 22 | 198 | 20.9 | 29.0 | 0.00 | 0.00 | 0.00 | 45 | 1000.0 |
| 20260504044203 | 22 | 207 | 19.3 | 27.4 | 0.00 | 0.00 | 0.00 | 45 | 1000.0 |
| 20260504043703 | 21 | 205 | 16.1 | 24.1 | 0.00 | 0.00 | 0.00 | 46 | 1000.0 |
| 20260504043204 | 22 | 215 | 14.5 | 33.8 | 0.00 | 0.00 | 0.00 | 46 | 1000.0 |
| 20260504042704 | 22 | 198 | 17.7 | 29.0 | 0.00 | 0.00 | 0.00 | 45 | 1000.0 |